User: anonymous   Login
Location: SAPM � Hemmingford
(45.0500°N, 73.5833°W)
Time: 02:31:46
(UTC-04:00)
Language:

Iridium 75 - Orbit

View from above orbital plane
View from above orbital plane
View from above satellite
View from above satellite

Ground track
Ground track

The orbit data is extracted from the following two-line orbital elements,

1 25346U 98032E   15188.49209387  .00000136  00000-0  41343-4 0  9996
2 25346 086.3985 161.1855 0002324 087.5447 031.1060 14.34215786897808
Epoch (UTC): 07 July 2015 11:48:36
Eccentricity: 0.0002324
inclination: 86.3985°
perigee height: 776 km
apogee height: 779 km
right ascension of ascending node: 161.1855°
argument of perigee: 87.5447°
revolutions per day: 14.34215786
mean anomaly at epoch: 31.1060°
orbit number at epoch: 89780

The dashed part of the orbit path shows where the satellite is in the earth's shadow,  

DLR